Regional Weather Roundup
Issued by NWS Sioux Falls, SD

Home | Current Version | Previous Version | Text Only | Print | Product List | Glossary On
Versions: 1 2 3 4 5 6 7 8 9 10 11 12 13 14 15 16 17 18 19 20 21 22 23 24 25 26 27 28 29 30 31 32 33 34 35 36 37 38 39 40 41 42 43 44 45 46 47 48 49 50
000
ASUS43 KFSD 261902
RWRFSD

WEATHER ROUNDUP FOR SE SOUTH DAKOTA/SW MINNESOTA/NW IOWA
NATIONAL WEATHER SERVICE SIOUX FALLS SD
200 PM CDT FRI AUG 26 2016

NOTE: "FAIR" INDICATES FEW OR NO CLOUDS BELOW 12,000 FEET WITH NO
SIGNIFICANT WEATHER AND OR OBSTRUCTIONS TO VISIBILITY.


SDZ038>040-050-052>070-262000-
SOUTHEAST SOUTH DAKOTA

CITY           SKY/WX    TMP DP  RH WIND       PRES   REMARKS
BROOKINGS      CLOUDY    70  54  56 S7        30.15S
CHAMBERLAIN    CLOUDY    69  57  66 N9        30.14F
HURON          CLOUDY    68  51  54 CALM      30.15F
MADISON        FAIR      68  54  60 SW3       30.15F
MITCHELL       CLOUDY    73  50  44 NW3       30.14F
SIOUX FALLS    CLOUDY    74  57  55 SE8       30.14S
WINNER         MOCLDY    68  54  60 N14       30.13F
YANKTON        CLOUDY    72  55  56 SE3       30.11F
$$

MNZ071-072-080-081-089-090-097-098-262000-
SOUTHWEST MINNESOTA

CITY           SKY/WX    TMP DP  RH WIND       PRES   REMARKS
FAIRMONT       CLOUDY    68  56  65 SE5       30.17S
JACKSON          N/A     68  54  60 E6        30.18S
LUVERNE        CLOUDY    70  55  60 SE7       30.16S
MARSHALL       PTSUNNY   71  56  58 SE8       30.15F
MONTEVIDEO     CLOUDY    73  55  53 SW6       30.17S
REDWOOD FALLS  MOSUNNY   71  55  56 SE8       30.15F
TRACY          PTSUNNY   71  56  58 SE5       30.16S
WINDOM         CLOUDY    70  54  56 E6        30.17S
WORTHINGTON    PTSUNNY   67  57  70 SE8       30.17S
$$

IAZ001>003-012>014-020>022-031-032-NEZ013-014-SDZ071-262000-
NORTHWEST IOWA

CITY           SKY/WX    TMP DP  RH WIND       PRES   REMARKS
CHEROKEE       CLOUDY    70  62  74 E8        30.14S
DENISON        CLOUDY    68  63  83 SE8       30.11S HAZE
ESTHERVILLE    CLOUDY    67  59  75 SE6       30.16F
LE MARS        CLOUDY    72  61  68 SE7       30.14S
ORANGE CITY    CLOUDY    70  61  73 E3        30.15S
SHELDON        CLOUDY    70  61  73 MISG      30.14S
SIOUX CITY     CLOUDY    72  61  68 SE6       30.12F
SPENCER        CLOUDY    69  57  65 SE8       30.16F
STORM LAKE     CLOUDY    68  61  77 E9        30.15F
$$

ABBREVIATIONS USED IN REMARKS
   TC - TEMPERATURE IN CELSIUS
  WCI - WIND CHILL INDEX
   HX - HEAT INDEX
  VSB - VISIBILITY





USA.gov is the U.S. government's official web portal to all federal, state and local government web resources and services.